FOX-1A (AO-85) (40967 NORAD) Tracking and Keplerian Element Data

This shows tracking and keplerian element data for the satellite.

Feedback or suggestion? Click here.




ElementValue
Catalog40967
NameFOX-1A (AO-85)
Epoch Orbit2240
Epoch Day286.59947249
Epoch Year2024
RAAN15.054
Inclination64.7791
Eccentricity0.0189548
Argument of Perigee268.7737
Mean Anonmoly89.1651
Mean Motion14.84044786
Decay Rate0.00011278
L11 40967U 15058D 24286.59947249 .00011278 00000+0 99225-3 0 9994
L22 40967 64.7791 15.0540 0189548 268.7737 89.1651 14.84044786 22406



Live tracking and technical data element details for FOX-1A (AO-85) (NORAD 40967). FOX-1A (AO-85) can be tracked NOW for your location showing map with azimuth and elevation plus other details from your city location.







IsCatalogInMostPopularTable: catalog: 40967, numindb: 878
Update: records affected: 1



GetName: 40967 FOX-1A (AO-85)

Hit Count: updated at: Thu, 23 Jan 2025 13:28:33 GMT